Find EDC-01

NORAD ID: 64580 Int'l Des: 2025-135 Owner: LOFT/EDA Country: US operational
LEOCIRCULARRETROGRADESSO

Live-Position

3D-Globus wird geladen...

Über EDC-01

Beschreibung wird geladen...

Nächste Überflüge

Passes for default location (London). Set your location on the main map for personalized predictions.

Höhenverlauf

Loading altitude history...

Zweizeiliger Elementsatz

1 64580U 25135BE 26104.55427936 .00001082 00000-0 11343-3 0 9999
2 64580 97.7647 219.3298 0003074 176.8922 183.2316 14.91590017 44377
Epoch: 14. Apr. 2026 • Age: 7 hours

Aktueller Status

Höhe 593.4 km
Geschwindigkeit 7.56 km/s
Subsatellitenpunkt 4.72°N, 110.64°W
Startdatum 23. Juni 2025
Alter 0.8 years
Typ other

Technische Details

Klassifizierung Payload
Masse 150.00 kg
Trockenmasse 140.00 kg
Gesamtmasse 150.00 kg
Länge 1.30 m
Durchmesser 1.00 m
Spannweite 5.00 m
Form Trapezoid+2 pan
Hersteller ADST
Bus-Typ ARROW
Phasenstatus In Orbit
Besitzer/Staat LOFT/EDA/US

Most Searched